When you browse on this site, cookies collect data to enhance your experience and personalize the content and advertising you see.
Visit our Privacy Policy to learn more. By continuing to use the site, you agree to this use of cookies and data.
  • In United Kingdom
  • List of Countries
  • For 7 days
  • Water Temperature
  • Weather Map
  • Weather Widgets
  • user-avatar
    Login

    Hourly Weather Ambah

    Today, 5 April, Sunday

    Time Temperature Precipitation Wind Pressure Humidity
    00:00 +27°C° 0 mm 1 mps 744 mmHg 20%
    01:00 +27°C° 0 mm 1 mps 744 mmHg 21%
    02:00 +26°C° 0 mm 2 mps 743 mmHg 22%
    03:00 +26°C° 0 mm 2 mps 744 mmHg 23%
    04:00 +25°C° 0 mm 1 mps 744 mmHg 25%
    05:00 +24°C° 0 mm 1 mps 744 mmHg 27%
    06:00 +26°C° 0 mm 1 mps 745 mmHg 24%
    07:00 +28°C° 0 mm 1 mps 745 mmHg 21%
    08:00 +30°C° 0 mm 1 mps 746 mmHg 18%
    09:00 +33°C° 0 mm 1 mps 746 mmHg 16%
    10:00 +36°C° 0 mm 1 mps 746 mmHg 14%
    11:00 +37°C° 0 mm 1 mps 746 mmHg 13%
    12:00 +39°C° 0 mm 1 mps 745 mmHg 13%
    13:00 +39°C° 0 mm 2 mps 744 mmHg 12%
    14:00 +40°C° 0 mm 3 mps 743 mmHg 11%
    15:00 +40°C° 0 mm 4 mps 743 mmHg 11%
    16:00 +40°C° 0 mm 4 mps 743 mmHg 11%
    17:00 +40°C° 0 mm 4 mps 743 mmHg 11%
    18:00 +37°C° 0 mm 4 mps 743 mmHg 13%
    19:00 +35°C° 0 mm 3 mps 743 mmHg 15%
    20:00 +32°C° 0 mm 2 mps 744 mmHg 17%
    21:00 +31°C° 0 mm 2 mps 744 mmHg 18%
    22:00 +31°C° 0 mm 2 mps 744 mmHg 19%
    23:00 +30°C° 0 mm 2 mps 744 mmHg 19%

    Tomorrow, 6 April, Monday

    Time Temperature Precipitation Wind Pressure Humidity
    00:00 +29°C° 0 mm 1 mps 743 mmHg 21%
    01:00 +28°C° 0 mm 1 mps 743 mmHg 23%
    02:00 +27°C° 0 mm 1 mps 742 mmHg 24%
    03:00 +25°C° 0 mm 0 mps 742 mmHg 25%
    04:00 +24°C° 0 mm 0 mps 742 mmHg 25%
    05:00 +24°C° 0 mm 0 mps 742 mmHg 26%
    06:00 +26°C° 0 mm 0 mps 743 mmHg 24%
    07:00 +30°C° 0 mm 1 mps 744 mmHg 21%
    08:00 +32°C° 0 mm 1 mps 744 mmHg 18%
    09:00 +34°C° 0 mm 1 mps 744 mmHg 16%
    10:00 +37°C° 0 mm 2 mps 744 mmHg 14%
    11:00 +39°C° 0 mm 2 mps 744 mmHg 12%
    12:00 +40°C° 0 mm 3 mps 743 mmHg 11%
    13:00 +43°C° 0 mm 4 mps 742 mmHg 9%
    14:00 +45°C° 0 mm 5 mps 741 mmHg 8%
    15:00 +43°C° 0 mm 5 mps 741 mmHg 8%
    16:00 +42°C° 0 mm 5 mps 740 mmHg 8%
    17:00 +42°C° 0 mm 5 mps 740 mmHg 8%
    18:00 +38°C° 0 mm 4 mps 740 mmHg 10%
    19:00 +36°C° 0 mm 3 mps 741 mmHg 12%
    20:00 +34°C° 0 mm 2 mps 741 mmHg 14%
    21:00 +33°C° 0 mm 3 mps 741 mmHg 14%
    22:00 +31°C° 0 mm 3 mps 741 mmHg 15%
    23:00 +30°C° 0 mm 3 mps 741 mmHg 16%

    Day after tomorrow, 7 April, Tuesday

    Time Temperature Precipitation Wind Pressure Humidity
    00:00 +29°C° 0 mm 3 mps 741 mmHg 17%
    01:00 +29°C° 0 mm 3 mps 741 mmHg 18%
    02:00 +28°C° 0 mm 3 mps 741 mmHg 19%
    03:00 +27°C° 0 mm 2 mps 741 mmHg 20%
    04:00 +26°C° 0 mm 2 mps 741 mmHg 22%
    05:00 +26°C° 0 mm 1 mps 741 mmHg 23%
    06:00 +28°C° 0 mm 2 mps 741 mmHg 21%
    07:00 +31°C° 0 mm 2 mps 742 mmHg 18%
    08:00 +34°C° 0 mm 2 mps 742 mmHg 16%
    09:00 +36°C° 0 mm 3 mps 742 mmHg 13%
    10:00 +39°C° 0 mm 3 mps 742 mmHg 10%
    11:00 +42°C° 0 mm 4 mps 741 mmHg 7%
    12:00 +43°C° 0 mm 4 mps 741 mmHg 6%
    13:00 +43°C° 0 mm 5 mps 740 mmHg 5%
    14:00 +45°C° 0 mm 6 mps 739 mmHg 5%
    15:00 +43°C° 0 mm 5 mps 739 mmHg 5%
    16:00 +43°C° 0 mm 4 mps 738 mmHg 5%
    17:00 +42°C° 0 mm 3 mps 738 mmHg 6%
    18:00 +39°C° 0 mm 3 mps 739 mmHg 8%
    19:00 +36°C° 0 mm 3 mps 739 mmHg 9%
    20:00 +34°C° 0 mm 3 mps 740 mmHg 11%
    21:00 +31°C° 0 mm 3 mps 740 mmHg 16%
    22:00 +30°C° 0 mm 3 mps 739 mmHg 20%
    23:00 +28°C° 0 mm 3 mps 739 mmHg 24%

    8 April, Wednesday

    Time Temperature Precipitation Wind Pressure Humidity
    00:00 +28°C° 0 mm 2 mps 739 mmHg 25%
    01:00 +27°C° 0 mm 1 mps 739 mmHg 25%
    02:00 +26°C° 0 mm 1 mps 739 mmHg 26%
    03:00 +26°C° 0 mm 1 mps 739 mmHg 26%
    04:00 +26°C° 0 mm 1 mps 739 mmHg 27%
    05:00 +25°C° 0 mm 1 mps 740 mmHg 27%
    06:00 +28°C° 0 mm 1 mps 740 mmHg 24%
    07:00 +30°C° 0 mm 2 mps 741 mmHg 20%
    08:00 +32°C° 0 mm 2 mps 742 mmHg 17%
    09:00 +36°C° 0 mm 2 mps 742 mmHg 15%
    10:00 +37°C° 0 mm 1 mps 741 mmHg 13%
    11:00 +40°C° 0 mm 1 mps 741 mmHg 11%
    12:00 +41°C° 0 mm 2 mps 741 mmHg 10%
    13:00 +41°C° 0 mm 2 mps 740 mmHg 10%
    14:00 +43°C° 0 mm 3 mps 739 mmHg 9%
    15:00 +42°C° 0 mm 4 mps 739 mmHg 9%
    16:00 +42°C° 0 mm 4 mps 738 mmHg 9%
    17:00 +41°C° 0 mm 5 mps 738 mmHg 9%
    18:00 +38°C° 0 mm 4 mps 738 mmHg 10%
    19:00 +36°C° 0 mm 4 mps 739 mmHg 11%
    20:00 +34°C° 0 mm 3 mps 739 mmHg 12%
    21:00 +33°C° 0 mm 4 mps 740 mmHg 13%
    22:00 +32°C° 0 mm 4 mps 740 mmHg 13%
    23:00 +30°C° 0 mm 4 mps 740 mmHg 14%

    9 April, Thursday

    Time Temperature Precipitation Wind Pressure Humidity
    00:00 +29°C° 0 mm 3 mps 740 mmHg 15%
    01:00 +28°C° 0 mm 3 mps 740 mmHg 16%
    02:00 +27°C° 0 mm 2 mps 740 mmHg 17%
    03:00 +26°C° 0 mm 2 mps 740 mmHg 18%
    04:00 +26°C° 0 mm 1 mps 740 mmHg 19%
    05:00 +25°C° 0 mm 1 mps 740 mmHg 21%
    06:00 +27°C° 0 mm 1 mps 741 mmHg 19%
    07:00 +29°C° 0 mm 1 mps 742 mmHg 18%
    08:00 +31°C° 0 mm 1 mps 742 mmHg 17%
    09:00 +34°C° 0 mm 2 mps 742 mmHg 15%
    10:00 +37°C° 0 mm 2 mps 742 mmHg 13%
    11:00 +39°C° 0 mm 3 mps 742 mmHg 11%
    12:00 +41°C° 0 mm 4 mps 742 mmHg 10%
    13:00 +42°C° 0 mm 4 mps 741 mmHg 9%
    14:00 +43°C° 0 mm 5 mps 740 mmHg 9%
    15:00 +42°C° 0 mm 5 mps 740 mmHg 9%
    16:00 +41°C° 0 mm 5 mps 739 mmHg 9%
    17:00 +41°C° 0 mm 5 mps 739 mmHg 9%
    18:00 +38°C° 0 mm 4 mps 739 mmHg 11%
    19:00 +36°C° 0 mm 3 mps 740 mmHg 13%
    20:00 +32°C° 0 mm 2 mps 740 mmHg 14%
    21:00 +32°C° 0 mm 2 mps 740 mmHg 14%
    22:00 +31°C° 0 mm 2 mps 740 mmHg 15%
    23:00 +30°C° 0 mm 2 mps 741 mmHg 15%

    10 April, Friday

    Time Temperature Precipitation Wind Pressure Humidity
    00:00 +30°C° 0 mm 2 mps 740 mmHg 16%
    01:00 +29°C° 0 mm 2 mps 740 mmHg 16%
    02:00 +29°C° 0 mm 2 mps 740 mmHg 17%
    03:00 +28°C° 0 mm 1 mps 740 mmHg 18%
    04:00 +27°C° 0 mm 1 mps 740 mmHg 20%
    05:00 +24°C° 0 mm 0 mps 740 mmHg 21%
    06:00 +29°C° 0 mm 1 mps 741 mmHg 19%
    07:00 +31°C° 0 mm 2 mps 742 mmHg 16%
    08:00 +35°C° 0 mm 2 mps 742 mmHg 14%
    09:00 +37°C° 0 mm 3 mps 742 mmHg 12%
    10:00 +39°C° 0 mm 3 mps 742 mmHg 10%
    11:00 +42°C° 0 mm 3 mps 742 mmHg 9%
    12:00 +43°C° 0 mm 3 mps 742 mmHg 8%
    13:00 +44°C° 0 mm 3 mps 741 mmHg 7%
    14:00 +45°C° 0 mm 3 mps 740 mmHg 7%
    15:00 +44°C° 0 mm 4 mps 740 mmHg 7%
    16:00 +44°C° 0 mm 4 mps 739 mmHg 7%
    17:00 +43°C° 0 mm 4 mps 739 mmHg 7%
    18:00 +41°C° 0 mm 4 mps 739 mmHg 8%
    19:00 +38°C° 0 mm 3 mps 740 mmHg 9%
    20:00 +35°C° 0 mm 2 mps 740 mmHg 10%
    21:00 +35°C° 0 mm 2 mps 740 mmHg 11%
    22:00 +34°C° 0 mm 2 mps 740 mmHg 11%
    23:00 +32°C° 0 mm 2 mps 741 mmHg 12%
    Show more